Starlink 30378

operational
NORAD ID: 57787 Int'l Des: 2023-134 Owner: SPXS Country: US Constellation: starlink
LEOCIRCULAR

About Starlink 30378

Description loading...

Live Position

Loading 3D Globe...

Upcoming Passes

Altitude History

Altitude vs Time

uPlot chart will show altitude changes over time

Two-Line Element Set

1 57787U 23134S 25305.90443370 .00000440 00000-0 47616-4 0 9998
2 57787 43.0015 171.4583 0001080 272.4718 87.6000 15.02535687120251
Epoch: Nov 1, 2025 • Age: 35 hours

Current Status

Altitude 558.2 km
Velocity 7.59 km/s
Sub-Earth Point 11.82°N, 0.26°E
Launch Date Sep 4, 2023
Age 2.1 years
Type internet

Technical Details

Classification Payload
Mass 730.00 kg
Dry Mass 700.00 kg
Total Mass 730.00 kg
Length 0.30 m
Diameter 4.10 m
Span 29.00 m
Shape Box + pan
Manufacturer SPXS
Bus Type Starlink V2M
Phase Status In Orbit
Owner/State SPXS/US

Large Constellations

Loading constellations...